[[{"header":{"parameterUnit":"m.s-1","parameterCategory":1,"la1":30.2991,"la2":30.254,"lo1":-89.0895,"lo2":-89.0444,"dy":0.0017,"dx":0.0017,"nx":28,"ny":28,"refTime":"2024-11-30T09:00:00:Z","depth":0,"parameterNumber":2,"parameterNumberName":"U-component_of_WINDS"},"data":[0,0,0,0,0,0,0,0,0,0,0,0,0,0,0,0,0,0,0,0,0,0,0,0,0,0,0,0,0,0,0,0,0,0,0,0,0,0,0,0,0,0,0,0,0,0,0,0,0,0,0,0,0,0,0,0,0,0,0.643,0.6431,0,0.6527,0.6528,0.6529,0.6582,0.6582,0.6582,0.6582,0.6683,0.6685,0.6688,0,0,0,0,0,0,0,0,0,0,0,0,0,0.6293,0.6295,0.643,0.6431,0.6432,0.6526,0.6528,0.6529,0.6581,0.6582,0.6582,0.6582,0.6682,0.6685,0.6688,0,0,0,0,0,0,0,0,0,0,0,0,0,0.6367,0.6296,0.643,0.647,0.6474,0.6526,0.6528,0.6529,0.6581,0.6582,0.6582,0.6582,0.6681,0.6684,0.6688,0.6708,0,0,0.67,0.6702,0,0,0,0,0,0,0,0,0.6363,0.6372,0.6463,0.6467,0.6472,0.6542,0.6516,0.6589,0.6581,0.6541,0.6582,0.6582,0.6636,0.6643,0.6661,0.6713,0.6717,0.67,0.6703,0.6704,0.6705,0,0,0,0,0,0,0,0.6358,0.6368,0.6468,0.6464,0.647,0.6484,0.6494,0.6531,0.6586,0.6544,0.6548,0.6559,0.6638,0.6657,0.6664,0.6719,0.67,0.6704,0.6706,0.6707,0.6793,0.6793,0,0,0,0,0,0,0.6346,0.6364,0.6465,0.6471,0.6417,0.6486,0.6498,0.652,0.6586,0.6596,0.6559,0.6561,0.6651,0.6659,0.6668,0.6696,0.6704,0.6708,0.671,0.6793,0.6793,0.6793,0,0,0,0,0,0,0.6343,0.6354,0.6461,0.6419,0.6433,0.6488,0.6512,0.6521,0.654,0.6597,0.6607,0.6568,0.6651,0.6662,0.6698,0.67,0.671,0.6713,0.6793,0.6793,0.6793,0.6752,0,0,0,0,0,0,0.6339,0.6353,0.636,0.6418,0.6435,0.6489,0.6512,0.6523,0.6546,0.655,0.6608,0.6617,0.6652,0.6692,0.6702,0.6705,0.6716,0.6793,0.6793,0.6793,0.6753,0.675,0.6748,0,0,0,0,0,0.6333,0.6345,0.636,0.6372,0.6446,0.6489,0.6499,0.6538,0.6546,0.6555,0.6591,0.6616,0.6698,0.6695,0.6706,0.6711,0.6793,0.6793,0.6793,0.6754,0.6751,0.6748,0,0,0,0,0,0,0.6286,0.6353,0.6371,0.6402,0.6439,0.6497,0.6509,0.6533,0.6569,0.6571,0.6619,0.6631,0.6663,0.6691,0.6686,0.6735,0.6748,0.6751,0.6715,0.6712,0.671,0.6702,0.6719,0,0,0,0,0,0.6279,0.6308,0.6365,0.6387,0.6405,0.6454,0.6474,0.6501,0.6542,0.6558,0.6597,0.6637,0.6672,0.6694,0.6729,0.6758,0.6771,0.6767,0.6764,0.6762,0.6763,0.6781,0.678,0.6793,0.6793,0.6793,0,0,0.6265,0.6305,0.6321,0.6378,0.641,0.644,0.6466,0.6496,0.6519,0.6563,0.6599,0.6629,0.6676,0.6709,0.6725,0.6733,0.6763,0.6762,0.6759,0.6762,0.6781,0.678,0.6779,0.6793,0.6793,0.6793,0,0,0.6254,0.6287,0.6309,0.6341,0.6389,0.6422,0.6427,0.6483,0.6504,0.6541,0.6575,0.6603,0.6662,0.6695,0.6719,0.6722,0.6746,0.6732,0.6718,0.6736,0.6735,0.6734,0.6735,0.6735,0.6734,0.6734,0.6733,0,0.6231,0.6276,0.6317,0.6346,0.637,0.6412,0.6434,0.6464,0.6521,0.6538,0.6546,0.6622,0.6657,0.6697,0.6698,0.6716,0.6725,0.6726,0.6731,0.6731,0.6731,0.6733,0.6733,0.6732,0.6732,0.6732,0.6732,0,0.6244,0.6275,0.6287,0.6341,0.6368,0.6393,0.644,0.6461,0.6487,0.6519,0.6556,0.66,0.6645,0.6657,0.6682,0.6702,0.6705,0.6722,0.6736,0.6727,0.673,0.6731,0.6729,0.6729,0.673,0.673,0,0,0.6205,0.6283,0.6286,0.6312,0.6369,0.6394,0.6422,0.6466,0.6484,0.6523,0.6548,0.6598,0.6614,0.6641,0.6671,0.6686,0.6686,0.6701,0.6703,0.6697,0.6712,0.6698,0.6698,0.6703,0.6703,0.6703,0.6708,0,0.6202,0.6253,0.6292,0.6329,0.6358,0.6399,0.6423,0.6461,0.6493,0.6523,0.6558,0.6593,0.6611,0.6628,0.6645,0.6682,0.669,0.6683,0.6727,0.6728,0.6713,0.67,0.6686,0.6688,0.6709,0.6709,0.6709,0,0.6205,0.6242,0.6281,0.6336,0.635,0.6371,0.6415,0.6444,0.6489,0.6511,0.6542,0.6573,0.6605,0.6617,0.6663,0.6657,0.6678,0.67,0.6701,0.6706,0.6718,0.6704,0.6689,0.6689,0.6711,0.6711,0.6711,0,0.6172,0.6232,0.6263,0.6284,0.6349,0.6363,0.6391,0.6436,0.6461,0.65,0.6516,0.6558,0.6582,0.6614,0.6656,0.6661,0.6698,0.6713,0.6717,0.6716,0.6722,0.6721,0.671,0.6736,0.6736,0.6736,0.6736,0,0.6164,0.6186,0.6249,0.6268,0.6295,0.6341,0.6367,0.6398,0.6439,0.6465,0.6504,0.6528,0.6582,0.6614,0.6647,0.668,0.6691,0.671,0.6718,0.6706,0.6703,0.6719,0.672,0.6737,0.6736,0.6736,0.6736,0,0.613,0.6174,0.6211,0.627,0.6285,0.6302,0.6354,0.6374,0.6409,0.6442,0.6453,0.6506,0.6546,0.6591,0.6645,0.6668,0.6698,0.6711,0.6683,0.6687,0.6689,0.6688,0.6687,0.669,0.6714,0.6714,0.6714,0,0.6122,0.614,0.6201,0.6222,0.6249,0.6281,0.6307,0.6353,0.6378,0.6432,0.6446,0.6488,0.6524,0.6586,0.663,0.6672,0.6686,0.6683,0.6692,0.668,0.6686,0.6684,0.6686,0.6679,0.6679,0.6679,0.6678,0,0.6102,0.6123,0.6157,0.62,0.6229,0.6264,0.6302,0.6317,0.6371,0.6397,0.6438,0.6466,0.6522,0.6563,0.6611,0.6642,0.6669,0.6675,0.6678,0.6666,0.6648,0.6658,0.6675,0.6675,0.6675,0.6675,0.6675,0.6676,0.6081,0.6099,0.6145,0.6183,0.6216,0.625,0.6273,0.631,0.6345,0.6393,0.642,0.646,0.6506,0.6574,0.6603,0.6636,0.6645,0.665,0.6651,0.6651,0.6648,0.6644,0.6645,0.6645,0.6645,0.6645,0.6646,0,0.6063,0.6095,0.6129,0.618,0.621,0.6234,0.6277,0.63,0.6335,0.6376,0.6411,0.6459,0.65,0.6548,0.6593,0.661,0.6624,0.662,0.6619,0.6625,0.6637,0.6629,0.6608,0.6608,0.6608,0.6608,0.6608,0.6608,0.6056,0.6089,0.6116,0.6166,0.6199,0.6238,0.626,0.6293,0.6326,0.6377,0.6411,0.6442,0.6487,0.6535,0.6575,0.6588,0.6603,0.6595,0.6612,0.6621,0.6624,0.6627,0.6621,0.6598,0.6598,0.6598,0.6598,0.6598]},{"header":{"parameterUnit":"m.s-1","parameterCategory":1,"la1":30.2991,"la2":30.254,"lo1":-89.0895,"lo2":-89.0444,"dy":0.0017,"dx":0.0017,"nx":28,"ny":28,"refTime":"2024-11-30T09:00:00:Z","depth":0,"parameterNumber":3,"parameterNumberName":"V-component_of_WINDS"},"data":[0,0,0,0,0,0,0,0,0,0,0,0,0,0,0,0,0,0,0,0,0,0,0,0,0,0,0,0,0,0,0,0,0,0,0,0,0,0,0,0,0,0,0,0,0,0,0,0,0,0,0,0,0,0,0,0,0,0,-2.1846,-2.1846,0,-2.1919,-2.1919,-2.192,-2.1962,-2.1963,-2.1963,-2.1963,-2.2035,-2.2036,-2.2038,0,0,0,0,0,0,0,0,0,0,0,0,0,-2.1741,-2.1743,-2.1846,-2.1846,-2.1847,-2.1918,-2.1919,-2.192,-2.1962,-2.1963,-2.1963,-2.1963,-2.2034,-2.2036,-2.2038,0,0,0,0,0,0,0,0,0,0,0,0,0,-2.1798,-2.1744,-2.1845,-2.1877,-2.1881,-2.1918,-2.1919,-2.1921,-2.1962,-2.1963,-2.1963,-2.1963,-2.2034,-2.2036,-2.2039,-2.205,0,0,-2.2047,-2.2048,0,0,0,0,0,0,0,0,-2.1794,-2.1801,-2.1871,-2.1875,-2.1879,-2.1932,-2.1909,-2.1964,-2.1962,-2.1931,-2.1963,-2.1963,-2.2,-2.2005,-2.2019,-2.2053,-2.2056,-2.2047,-2.2049,-2.205,-2.205,0,0,0,0,0,0,0,-2.179,-2.1798,-2.1874,-2.1872,-2.1877,-2.1887,-2.1895,-2.192,-2.1963,-2.1934,-2.1937,-2.1945,-2.2002,-2.2016,-2.202,-2.2057,-2.2047,-2.2049,-2.2051,-2.2052,-2.2106,-2.2106,0,0,0,0,0,0,-2.1782,-2.1795,-2.1872,-2.1877,-2.1837,-2.1889,-2.1898,-2.1914,-2.1963,-2.1971,-2.1945,-2.1947,-2.2011,-2.2017,-2.2023,-2.2041,-2.205,-2.2052,-2.2054,-2.2106,-2.2106,-2.2106,0,0,0,0,0,0,-2.1779,-2.1788,-2.1869,-2.1837,-2.1848,-2.189,-2.1908,-2.1916,-2.193,-2.1972,-2.1979,-2.1951,-2.2012,-2.2019,-2.2043,-2.2044,-2.2053,-2.2056,-2.2107,-2.2106,-2.2106,-2.2075,0,0,0,0,0,0,-2.1776,-2.1787,-2.1792,-2.1837,-2.1849,-2.1888,-2.1908,-2.1917,-2.1934,-2.1938,-2.1979,-2.1986,-2.2013,-2.2039,-2.2046,-2.2047,-2.2058,-2.2107,-2.2106,-2.2106,-2.2076,-2.2073,-2.2071,0,0,0,0,0,-2.1772,-2.1779,-2.1792,-2.1801,-2.1856,-2.1888,-2.1896,-2.1926,-2.1934,-2.1939,-2.1967,-2.1985,-2.2043,-2.2041,-2.2049,-2.2051,-2.2107,-2.2107,-2.2106,-2.2077,-2.2074,-2.2071,0,0,0,0,0,0,-2.1732,-2.1785,-2.18,-2.1822,-2.185,-2.1895,-2.1903,-2.1922,-2.1948,-2.195,-2.1986,-2.1995,-2.2016,-2.2036,-2.2034,-2.2066,-2.2077,-2.2078,-2.2052,-2.2049,-2.2047,-2.2042,-2.206,0,0,0,0,0,-2.1725,-2.1748,-2.1793,-2.1807,-2.1821,-2.1859,-2.1874,-2.1896,-2.1927,-2.1939,-2.1967,-2.1996,-2.2021,-2.2036,-2.2061,-2.2079,-2.2089,-2.2084,-2.2082,-2.208,-2.2081,-2.2093,-2.2092,-2.2105,-2.2105,-2.2105,0,0,-2.1712,-2.1744,-2.1756,-2.18,-2.1825,-2.1847,-2.1869,-2.1891,-2.1908,-2.1941,-2.1967,-2.1989,-2.2023,-2.2045,-2.2055,-2.2062,-2.208,-2.208,-2.2078,-2.208,-2.2093,-2.2092,-2.2091,-2.2105,-2.2105,-2.2105,0,0,-2.17,-2.1726,-2.1742,-2.1767,-2.1805,-2.183,-2.1834,-2.1877,-2.1894,-2.1919,-2.1946,-2.1966,-2.2007,-2.2031,-2.2049,-2.2047,-2.2066,-2.2054,-2.2042,-2.2054,-2.2053,-2.2053,-2.2053,-2.2053,-2.2055,-2.2055,-2.2055,0,-2.1678,-2.1713,-2.1747,-2.1769,-2.1788,-2.1821,-2.1838,-2.186,-2.1903,-2.1915,-2.1922,-2.1976,-2.2002,-2.203,-2.203,-2.2043,-2.2048,-2.205,-2.2051,-2.205,-2.205,-2.2051,-2.2051,-2.2053,-2.2053,-2.2054,-2.2054,0,-2.1686,-2.171,-2.1718,-2.1761,-2.1781,-2.1799,-2.1836,-2.1852,-2.1872,-2.1897,-2.1924,-2.1956,-2.1988,-2.1997,-2.2015,-2.2028,-2.2031,-2.2044,-2.2056,-2.2047,-2.2048,-2.2049,-2.2051,-2.2052,-2.2052,-2.2052,0,0,-2.1649,-2.1712,-2.1715,-2.1735,-2.178,-2.1799,-2.1819,-2.1853,-2.1866,-2.1895,-2.1914,-2.1949,-2.1962,-2.1982,-2.2004,-2.2014,-2.2013,-2.2026,-2.2027,-2.2023,-2.203,-2.202,-2.202,-2.2025,-2.2026,-2.2026,-2.2027,0,-2.1644,-2.1683,-2.1715,-2.1742,-2.1765,-2.1798,-2.1816,-2.1846,-2.187,-2.1892,-2.1919,-2.1944,-2.1958,-2.1971,-2.1982,-2.201,-2.2015,-2.2011,-2.2043,-2.2044,-2.2034,-2.2021,-2.2011,-2.2011,-2.2028,-2.2028,-2.2028,0,-2.1642,-2.1672,-2.1702,-2.1747,-2.1758,-2.1773,-2.1808,-2.1829,-2.1863,-2.188,-2.1903,-2.1927,-2.195,-2.196,-2.1993,-2.1989,-2.2004,-2.202,-2.2021,-2.2025,-2.2035,-2.2026,-2.2011,-2.2011,-2.2029,-2.2029,-2.2029,0,-2.1614,-2.1661,-2.1686,-2.1702,-2.1755,-2.1765,-2.1787,-2.1822,-2.1841,-2.187,-2.1883,-2.1914,-2.1931,-2.1954,-2.1986,-2.199,-2.2016,-2.2028,-2.2031,-2.203,-2.2035,-2.2034,-2.2023,-2.2043,-2.2043,-2.2043,-2.2043,0,-2.1605,-2.1622,-2.1674,-2.1689,-2.171,-2.1747,-2.1766,-2.1791,-2.1822,-2.1842,-2.1872,-2.189,-2.1931,-2.1954,-2.1978,-2.2003,-2.201,-2.2024,-2.2031,-2.2022,-2.202,-2.2032,-2.2033,-2.2043,-2.2043,-2.2043,-2.2043,0,-2.1576,-2.1612,-2.1641,-2.1689,-2.1701,-2.1714,-2.1755,-2.1771,-2.1797,-2.1823,-2.1831,-2.1872,-2.1902,-2.1936,-2.1975,-2.1992,-2.2014,-2.2023,-2.2003,-2.2007,-2.2008,-2.2008,-2.2005,-2.2007,-2.2025,-2.2025,-2.2025,0,-2.1568,-2.1583,-2.1633,-2.165,-2.1671,-2.1697,-2.1717,-2.1754,-2.1773,-2.1815,-2.1826,-2.1857,-2.1885,-2.193,-2.1963,-2.1994,-2.2004,-2.2002,-2.2009,-2.2001,-2.2006,-2.2005,-2.2007,-2.1999,-2.1999,-2.1999,-2.1998,0,-2.1551,-2.1569,-2.1597,-2.1631,-2.1654,-2.1683,-2.1712,-2.1724,-2.1767,-2.1787,-2.1818,-2.184,-2.1882,-2.1913,-2.1949,-2.1971,-2.1992,-2.1996,-2.1998,-2.199,-2.1978,-2.1985,-2.1998,-2.1996,-2.1996,-2.1996,-2.1996,-2.1996,-2.1534,-2.1549,-2.1587,-2.1617,-2.1644,-2.1672,-2.169,-2.1719,-2.1746,-2.1784,-2.1804,-2.1835,-2.187,-2.192,-2.1942,-2.1967,-2.1974,-2.1977,-2.1978,-2.1978,-2.1976,-2.1974,-2.1973,-2.1973,-2.1973,-2.1973,-2.1973,0,-2.1519,-2.1545,-2.1573,-2.1615,-2.1639,-2.1658,-2.1693,-2.1711,-2.1739,-2.177,-2.1797,-2.1834,-2.1865,-2.1901,-2.1934,-2.1947,-2.1958,-2.1955,-2.1954,-2.1959,-2.1967,-2.1963,-2.1946,-2.1946,-2.1946,-2.1946,-2.1946,-2.1946,-2.1514,-2.1541,-2.1563,-2.1604,-2.163,-2.1662,-2.168,-2.1706,-2.1732,-2.1771,-2.1798,-2.1822,-2.1856,-2.1892,-2.1922,-2.1931,-2.1943,-2.1937,-2.1949,-2.1956,-2.1959,-2.1961,-2.1956,-2.1939,-2.1939,-2.194,-2.194,-2.194]}]]